Weather History for Mount Sterling, KY

Change the Weather History Date:

Wednesday, January 2, 2013

  Actual Average Record
Temperature  
Mean Temperature 28 °F -  
Max Temperature 33 °F 40 °F 37 °F (2014)
Min Temperature 23 °F 24 °F 14 °F (2014)
Degree Days  
Heating Degree Days 37    
Moisture  
Dew Point 23 °F    
Average Humidity 77    
Maximum Humidity 100    
Minimum Humidity 60    
Precipitation  
Precipitation 0.00 in - - ()
Sea Level Pressure  
Sea Level Pressure 30.19 in    
Wind  
Wind Speed 3 mph (NE)    
Max Wind Speed 8 mph    
Max Gust Speed -    
Visibility 10 miles    
Events      
Averages and records for this station are not official NWS values.
T = Trace of Precipitation, MM = Missing Value Source: NWS Daily Summary

Daily Weather History Graph

Daily Weather History Graph

Search for Another Location

Airport:

Trip Planner

Search our weather history database for the weather conditions in past years. The results will help you decide how hot, cold, wet, or windy it might be!

Date:

Astronomy

Jan. 02, 2013 Rise Set
Actual Time 7:52 AM EST 5:28 PM EST
Civil Twilight 7:22 AM EST 5:57 PM EST
Nautical Twilight 6:50 AM EST 6:30 PM EST
Astronomical Twilight 6:18 AM EST 7:02 PM EST
Moon 10:53 PM EST (1/2) 10:38 AM EST (1/2)
Length of Visible Light 10h 34m
Length of Day
9h 35m
Waning Gibbous, 75% of the Moon is Illuminated
Jan 2
Waning Gibbous
Jan 4
Last Quarter
Jan 11
New
Jan 18
First Quarter
Jan 26
Full

Hourly Weather History & Observations

Time (EST) Temp. Windchill Dew Point Humidity Pressure Visibility Wind Dir Wind Speed Gust Speed Precip Events Conditions
12:15 AM 32.0 °F 27.5 °F 32.0 °F 100% 30.12 in 2.5 mi NE 4.6 mph - N/A   Overcast
12:35 AM 32.0 °F 27.5 °F 30.2 °F 93% 30.11 in 3.0 mi NE 4.6 mph - N/A   Overcast
12:55 AM 32.0 °F 27.5 °F 30.2 °F 93% 30.11 in 4.0 mi NE 4.6 mph - N/A   Overcast
1:15 AM 30.2 °F 26.7 °F 30.2 °F 100% 30.10 in 5.0 mi NE 3.5 mph - N/A   Overcast
1:35 AM 30.2 °F 22.6 °F 30.2 °F 100% 30.12 in 5.0 mi NNE 8.1 mph - N/A   Overcast
1:55 AM 30.2 °F 24.3 °F 28.4 °F 93% 30.12 in 7.0 mi NE 5.8 mph - N/A   Overcast
2:15 AM 30.2 °F 23.4 °F 28.4 °F 93% 30.12 in 7.0 mi ENE 6.9 mph - N/A   Overcast
2:35 AM 30.2 °F 24.3 °F 28.4 °F 93% 30.13 in 10.0 mi NE 5.8 mph - N/A   Overcast
2:55 AM 30.2 °F 25.4 °F 26.6 °F 86% 30.13 in 10.0 mi NE 4.6 mph - N/A   Overcast
3:15 AM 30.2 °F 23.4 °F 26.6 °F 86% 30.14 in 10.0 mi NE 6.9 mph - N/A   Overcast
3:35 AM 28.4 °F 21.2 °F 23.0 °F 80% 30.14 in 10.0 mi ENE 6.9 mph - N/A   Overcast
3:55 AM 28.4 °F 20.4 °F 21.2 °F 74% 30.14 in 10.0 mi ENE 8.1 mph - N/A   Overcast
4:35 AM 28.4 °F 22.2 °F 21.2 °F 74% 30.15 in 10.0 mi NE 5.8 mph - N/A   Overcast
4:55 AM 28.4 °F 22.2 °F 23.0 °F 80% 30.15 in 10.0 mi NNE 5.8 mph - N/A   Overcast
5:15 AM 28.4 °F 23.3 °F 21.2 °F 74% 30.16 in 10.0 mi NNE 4.6 mph - N/A   Mostly Cloudy
5:35 AM 26.6 °F 22.6 °F 21.2 °F 80% 30.16 in 10.0 mi NE 3.5 mph - N/A   Scattered Clouds
5:55 AM 26.6 °F 22.6 °F 21.2 °F 80% 30.17 in 10.0 mi ENE 3.5 mph - N/A   Clear
6:15 AM 26.6 °F 21.2 °F 21.2 °F 80% 30.16 in 10.0 mi ENE 4.6 mph - N/A   Clear
6:35 AM 26.6 °F - 21.2 °F 80% 30.17 in 10.0 mi Calm Calm - N/A   Clear
6:55 AM 26.6 °F - 21.2 °F 80% 30.18 in 10.0 mi Calm Calm - N/A   Clear
7:15 AM 24.8 °F - 21.2 °F 86% 30.18 in 10.0 mi Calm Calm - N/A   Clear
7:35 AM 24.8 °F - 21.2 °F 86% 30.18 in 10.0 mi Calm Calm - N/A   Clear
7:55 AM 23.0 °F - 21.2 °F 93% 30.20 in 10.0 mi Calm Calm - N/A   Clear
8:15 AM 24.8 °F - 21.2 °F 86% 30.20 in 10.0 mi Calm Calm - N/A   Clear
8:35 AM 23.0 °F - 21.2 °F 93% 30.19 in 10.0 mi Calm Calm - N/A   Clear
8:55 AM 24.8 °F - 23.0 °F 93% 30.20 in 10.0 mi Calm Calm - N/A   Clear
9:15 AM 26.6 °F - 21.2 °F 80% 30.20 in 10.0 mi Calm Calm - N/A   Clear
9:35 AM 26.6 °F - 21.2 °F 80% 30.21 in 10.0 mi Calm Calm - N/A   Clear
9:55 AM 28.4 °F - 21.2 °F 74% 30.22 in 10.0 mi Calm Calm - N/A   Clear
10:15 AM 28.4 °F 23.3 °F 21.2 °F 74% 30.22 in 10.0 mi ENE 4.6 mph - N/A   Clear
10:35 AM 28.4 °F - 19.4 °F 69% 30.23 in 10.0 mi Calm Calm - N/A   Clear
10:55 AM 30.2 °F 26.7 °F 21.2 °F 69% 30.23 in 10.0 mi East 3.5 mph - N/A   Clear
11:15 AM 30.2 °F - 21.2 °F 69% 30.23 in 10.0 mi Calm Calm - N/A   Clear
11:35 AM 30.2 °F - 21.2 °F 69% 30.23 in 10.0 mi Calm Calm - N/A   Clear
11:55 AM 32.0 °F - 21.2 °F 64% 30.22 in 10.0 mi Calm Calm - N/A   Clear
12:15 PM 32.0 °F - 21.2 °F 64% 30.22 in 10.0 mi Calm Calm - N/A   Clear
12:35 PM 32.0 °F - 21.2 °F 64% 30.20 in 10.0 mi Calm Calm - N/A   Clear
12:55 PM 32.0 °F - 23.0 °F 69% 30.20 in 10.0 mi Calm Calm - N/A   Clear
1:15 PM 32.0 °F 27.5 °F 21.2 °F 64% 30.20 in 10.0 mi NE 4.6 mph - N/A   Clear
1:35 PM 32.0 °F 27.5 °F 23.0 °F 69% 30.19 in 10.0 mi East 4.6 mph - N/A   Clear
1:55 PM 32.0 °F - 21.2 °F 64% 30.19 in 10.0 mi Calm Calm - N/A   Clear
2:15 PM 32.0 °F - 21.2 °F 64% 30.19 in 10.0 mi Calm Calm - N/A   Clear
2:35 PM 32.0 °F 28.7 °F 21.2 °F 64% 30.18 in 10.0 mi East 3.5 mph - N/A   Clear
2:55 PM 33.8 °F 30.8 °F 21.2 °F 60% 30.18 in 10.0 mi ENE 3.5 mph - N/A   Clear
3:15 PM 32.0 °F - 21.2 °F 64% 30.19 in 10.0 mi Calm Calm - N/A   Clear
3:35 PM 32.0 °F 28.7 °F 21.2 °F 64% 30.18 in 10.0 mi NNE 3.5 mph - N/A   Clear
3:55 PM 33.8 °F - 21.2 °F 60% 30.18 in 10.0 mi Calm Calm - N/A   Clear
4:15 PM 32.0 °F - 21.2 °F 64% 30.18 in 10.0 mi Calm Calm - N/A   Clear
4:35 PM 32.0 °F - 21.2 °F 64% 30.18 in 10.0 mi Calm Calm - N/A   Clear
4:55 PM 32.0 °F - 19.4 °F 60% 30.17 in 10.0 mi Calm Calm - N/A   Clear
5:15 PM 32.0 °F - 21.2 °F 64% 30.18 in 10.0 mi Calm Calm - N/A   Clear
5:35 PM 32.0 °F 28.7 °F 23.0 °F 69% 30.18 in 10.0 mi North 3.5 mph - N/A   Clear
5:55 PM 30.2 °F 26.7 °F 23.0 °F 75% 30.19 in 10.0 mi North 3.5 mph - N/A   Clear
6:15 PM 30.2 °F 25.4 °F 23.0 °F 75% 30.19 in 10.0 mi North 4.6 mph - N/A   Clear
6:35 PM 30.2 °F 26.7 °F 23.0 °F 75% 30.20 in 10.0 mi North 3.5 mph - N/A   Clear
6:55 PM 30.2 °F - 23.0 °F 75% 30.21 in 10.0 mi Calm Calm - N/A   Clear
7:15 PM 28.4 °F - 23.0 °F 80% 30.21 in 10.0 mi Calm Calm - N/A   Clear
7:35 PM 28.4 °F - 21.2 °F 74% 30.22 in 10.0 mi Calm Calm - N/A   Clear
7:55 PM 28.4 °F - 21.2 °F 74% 30.23 in 10.0 mi Calm Calm - N/A   Clear
8:15 PM 28.4 °F - 21.2 °F 74% 30.22 in 10.0 mi Calm Calm - N/A   Clear
8:35 PM 28.4 °F - 23.0 °F 80% 30.22 in 10.0 mi Calm Calm - N/A   Clear
8:55 PM 26.6 °F - 23.0 °F 86% 30.23 in 10.0 mi Calm Calm - N/A   Clear
9:15 PM 28.4 °F - 23.0 °F 80% 30.22 in 10.0 mi Calm Calm - N/A   Clear
9:35 PM 28.4 °F - 23.0 °F 80% 30.23 in 10.0 mi Calm Calm - N/A   Clear
9:55 PM 26.6 °F - 23.0 °F 86% 30.23 in 10.0 mi Calm Calm - N/A   Clear
10:15 PM 28.4 °F - 23.0 °F 80% 30.23 in 10.0 mi Calm Calm - N/A   Clear
10:35 PM 28.4 °F - 21.2 °F 74% 30.23 in 10.0 mi Calm Calm - N/A   Clear
10:55 PM 26.6 °F - 21.2 °F 80% 30.22 in 10.0 mi Calm Calm - N/A   Clear
11:15 PM 26.6 °F - 23.0 °F 86% 30.22 in 10.0 mi Calm Calm - N/A   Clear
11:35 PM 26.6 °F - 23.0 °F 86% 30.22 in 10.0 mi Calm Calm - N/A   Clear
11:55 PM 26.6 °F - 23.0 °F 86% 30.22 in 10.0 mi Calm Calm - N/A   Clear